SCP
0 0 0 0 0 0 0 0 0 0 0 0 0 0 0 0 0 0 0 0 0 -0 -0 0 0 0 0 0 0 0 0 0 1 1 0 0 0 0 0 0 0 0 0 0
0 0 0 0 0 0 0 0 0 0 0 0 -0 0 0 0 0 0 0 0 0 -0 -0 -0 0 0 0 0 0 0 0 0 0 1 1 1 1 0 0 0 0 0 0 0
0 0 0 0 0 0 0 0 0 -0 0 0 -0 -0 -0 -0 0 0 0 0 0 -0 -0 -0 -0 0 0 0 0 0 0 0 0 0 1 0 0 0 0 0 1 1 0 1
0 0 0 0 0 0 0 0 0 0 0 -0 -0 -0 -0 -0 0 0 0 0 0 0 -0 -0 -0 -0 -0 0 0 0 0 0 0 0 0 1 1 1 1 0 0 1 1 1
0 0 0 0 0 0 0 0 0 0 0 0 0 -0 -0 -0 -0 0 0 0 0 0 0 0 -0 0 0 -0 0 0 0 0 0 0 0 1 1 1 0 0 0 0 0 1
0 0 0 0 0 0 0 0 0 0 0 0 -0 -0 -0 -0 -0 0 0 0 0 0 0 0 0 0 0 0 -0 0 0 0 0 0 0 1 1 1 0 0 0 0 1 1
0 0 0 0 0 0 0 0 0 0 0 0 0 -0 0 0 0 0 0 -0 0 0 0 0 0 0 0 0 0 0 0 0 0 0 0 1 1 1 0 0 0 1 1 1
0 0 0 0 0 0 0 0 0 0 0 0 0 0 0 0 0 0 0 0 0 0 -0 -0 -0 -0 0 0 0 0 0 0 0 0 0 0 1 1 0 0 0 1 1 1
0 0 0 0 0 0 0 0 0 0 0 0 0 0 0 0 0 0 0 0 0 -0 -0 -0 -0 -0 -0 -0 0 0 0 0 0 0 0 0 0 0 0 0 0 1 1 1
0 0 0 0 0 0 0 0 0 0 0 0 0 0 0 0 0 0 0 0 0 -0 -0 -0 -0 -0 -0 -0 0 0 0 0 0 0 0 0 0 0 0 0 0 1 1 1
0 0 0 0 0 0 0 0 0 0 0 0 0 0 0 0 0 0 0 0 0 -0 -0 -0 -0 -0 0 0 0 0 0 0 0 0 0 0 0 0 0 0 0 1 1 1
0 0 0 0 0 0 0 0 0 0 0 0 0 0 0 -0 -0 -0 -0 0 0 0 -0 -0 -0 0 0 0 0 0 0 0 0 0 0 0 0 0 0 0 1 1 1 1
0 0 0 0 0 0 0 0 0 0 0 0 0 0 0 0 -0 -0 -0 -0 0 0 0 -0 -0 0 0 0 0 0 0 0 0 0 0 0 0 0 0 0 1 1 1 2
0 0 0 0 0 0 0 0 0 0 0 0 0 0 -0 0 -0 0 -0 -0 -0 -0 -0 -0 -0 0 0 0 0 0 0 0 0 0 0 0 0 0 1 1 1 1 2 2
0 0 0 0 0 0 -0 0 0 0 0 0 -0 0 -0 -0 0 -0 -0 -0 -0 -0 -0 -0 -0 0 0 0 0 0 0 0 0 0 0 0 1 1 2 1 1 2 2 2
0 0 0 0 0 0 -0 0 0 0 0 0 0 -0 0 -0 0 0 -0 -0 -0 -0 -0 -0 -0 0 0 0 -0 0 0 1 3 1 1 2 3 3 3 2 2 2 2 1
0 0 0 0 -0 0 0 0 0 0 0 0 0 0 0 0 -0 -0 -0 -0 -0 -0 -0 -0 0 -0 0 -0 0 0 0 1 5 3 3 3 4 3 3 3 3 2 1 1
0 0 0 0 0 0 0 0 0 0 0 0 0 0 0 -0 0 0 -0 -0 -0 -0 -0 -0 -0 -0 -0 -0 0 0 0 0 5 3 3 4 3 3 3 2 2 1 0 0
0 0 0 0 0 0 0 0 0 0 0 0 0 0 -0 0 -0 -0 -0 -0 -0 0 -0 0 -0 -0 -0 -0 0 0 0 0 2 2 2 3 2 2 2 1 0 0 0 0
0 0 0 0 0 0 0 0 0 0 -0 0 -0 -0 -0 0 -0 -0 -0 -0 0 0 -0 -0 -0 0 0 0 0 0 0 0 0 2 2 2 1 1 1 0 0 0 0 0
0 0 0 0 0 0 0 0 0 0 0 -0 -0 0 -0 -0 -0 -0 -0 -0 -0 -0 -0 -0 -0 0 0 0 0 0 0 0 0 1 1 1 1 0 0 0 0 0 0 0
0 0 0 0 0 0 0 0 0 0 -0 -0 -0 -0 -0 -0 -0 -0 -0 -0 -0 -0 -0 -0 -0 0 0 0 0 0 0 0 0 0 0 1 0 0 0 0 0 0 0 0
0 0 0 0 0 0 0 0 0 0 -0 0 0 -0 -0 -0 -0 -0 -0 -0 -0 -0 -0 -0 0 -0 -0 0 0 0 0 0 0 0 0 0 0 0 0 0 0 0 0 0
0 0 0 0 0 0 0 0 0 0 0 -0 0 -0 -0 -0 -0 -0 -0 -0 -0 -0 -0 -0 0 -0 0 0 0 0 0 0 0 0 0 0 0 0 0 0 0 0 0 0
0 0 0 0 0 -0 0 0 0 0 0 0 -0 -0 -0 -0 -0 -0 -0 0 0 0 0 0 0 0 -0 0 0 0 0 0 0 0 0 0 0 0 0 0 0 0 0 0
0 0 0 0 0 0 0 0 0 0 0 0 -0 -0 0 0 -0 -0 0 0 0 0 0 0 0 -0 -0 0 0 0 0 0 0 0 0 0 0 0 0 0 0 0 0 0
Wind_Speed_500mb
7 8 5 9 10 9 6 7 9 10 10 9 16 32 19 21 29 31 39 39 35 30 28 25 30 34 33 28 25 30 36 42 49 49 56 77 91 90 79 83 70 58 58 56
10 5 10 9 9 8 8 7 9 10 11 14 18 45 36 26 19 33 29 26 32 29 37 41 36 40 43 44 37 30 28 39 50 57 62 61 73 86 83 81 71 65 61 56
9 9 5 6 3 6 7 8 6 11 7 11 13 18 10 10 8 10 19 29 37 44 36 33 38 41 47 48 48 47 34 34 38 55 66 68 65 78 92 91 75 78 71 63
8 5 6 5 4 8 5 8 8 10 8 6 8 11 5 15 18 8 23 43 38 37 39 43 48 54 55 61 58 58 52 42 41 42 62 76 84 79 83 91 82 83 73 66
13 5 9 4 10 10 14 5 6 6 7 4 6 8 9 9 9 16 16 25 24 41 46 47 45 44 49 52 52 58 62 58 50 45 50 68 79 82 86 101 94 89 75 65
14 6 7 10 3 6 6 7 10 8 5 5 11 10 2 4 12 11 15 31 36 34 37 48 56 65 68 62 63 56 59 65 63 56 54 62 76 85 80 88 99 97 72 61
7 4 2 3 4 6 11 12 9 9 3 10 3 7 16 21 35 12 16 30 34 40 53 60 73 83 82 83 75 66 60 66 71 67 63 57 75 78 85 80 88 96 75 58
5 9 6 0 6 8 8 13 9 10 6 12 5 16 14 12 23 30 20 27 42 50 52 66 82 89 87 94 87 69 64 72 73 78 70 59 73 82 87 87 91 100 81 59
5 9 7 6 8 12 3 7 9 4 3 3 10 16 24 31 24 12 22 35 43 48 56 68 86 103 106 109 97 67 67 75 77 81 82 68 65 83 91 89 88 92 77 61
6 8 8 9 3 4 10 10 1 5 5 9 10 12 20 23 30 9 19 35 54 51 55 75 95 92 96 86 72 60 66 76 83 86 89 75 66 79 85 91 86 74 72 64
9 6 7 5 8 12 2 2 5 5 8 8 9 12 11 12 18 17 17 38 54 46 55 69 87 74 72 59 60 70 63 69 85 86 93 82 72 74 79 80 69 74 74 64
7 8 7 18 15 8 10 13 11 7 8 9 5 30 9 27 26 16 32 46 55 44 49 74 83 79 81 71 69 71 65 71 88 85 93 87 72 72 71 68 71 78 68 53
9 4 6 11 5 7 6 9 10 5 2 18 15 24 7 9 14 43 46 53 54 43 50 70 84 78 86 90 75 73 62 67 77 83 86 81 75 70 65 69 75 68 53 53
12 12 15 18 13 6 17 28 19 15 10 17 37 52 45 37 34 26 44 49 44 49 46 55 70 84 92 99 76 84 64 50 57 71 78 73 75 70 67 72 65 50 54 56
11 15 18 27 26 23 29 35 36 32 40 27 53 36 42 38 34 21 34 38 44 49 43 47 57 69 87 100 85 78 71 40 42 62 75 69 70 65 65 66 56 54 55 56
7 8 8 9 14 23 38 44 40 39 38 37 49 48 43 50 21 22 36 40 41 37 42 51 69 86 96 98 83 100 76 26 23 38 65 71 63 65 66 63 61 58 54 56
9 6 6 19 14 13 19 34 26 12 12 12 14 31 10 11 13 15 37 48 40 35 50 62 71 71 75 85 94 84 66 3 13 20 42 60 69 71 67 63 56 54 56 57
14 11 8 9 4 11 12 6 10 17 18 15 17 24 20 17 16 34 45 51 41 46 47 69 67 71 78 86 58 55 49 17 7 21 42 54 64 64 58 53 54 58 58 64
30 16 6 6 8 13 14 7 2 8 13 7 20 21 13 19 31 37 53 38 46 67 60 68 84 77 80 75 76 65 40 28 6 15 30 49 56 55 53 61 63 63 62 65
15 19 6 3 6 9 12 3 7 4 18 4 8 14 11 15 27 28 58 61 69 69 56 77 83 71 67 60 60 58 38 14 4 19 31 41 45 50 65 67 67 62 71 72
8 6 18 14 10 13 11 4 3 4 9 17 16 21 25 23 35 72 72 72 68 62 64 76 72 71 63 54 53 45 35 5 12 20 28 37 49 57 66 73 61 70 69 63
2 3 5 6 10 13 10 4 10 9 47 41 47 59 53 56 65 55 69 70 63 59 63 67 72 73 54 45 46 39 24 12 21 24 29 39 54 73 72 67 71 68 64 62
3 8 5 13 10 14 17 33 57 55 51 42 55 65 62 65 65 64 75 71 64 57 67 62 70 69 51 40 41 37 12 7 18 3 15 45 69 75 69 70 71 68 64 59
7 3 7 8 11 20 45 61 60 56 61 79 63 65 70 68 60 59 68 67 59 59 59 50 61 66 50 31 35 22 17 13 19 14 21 35 62 67 65 66 66 65 61 58
13 7 9 12 20 32 44 49 60 77 70 61 62 66 63 59 58 63 70 72 73 67 54 58 60 68 43 28 29 11 16 24 9 9 34 40 71 68 68 65 61 54 52 46
6 10 5 9 44 50 49 69 71 61 59 67 62 62 76 74 70 70 79 77 64 55 65 69 64 46 30 23 26 8 18 19 20 55 55 77 75 70 64 59 56 48 41 33
Wind_Direction_500mb
23 75 199 225 213 215 232 203 221 257 266 343 293 289 284 273 281 282 282 287 297 313 324 337 329 319 312 299 286 269 261 277 275 278 264 251 243 237 234 234 240 241 249 250
24 225 221 228 228 199 208 245 261 284 297 314 294 290 288 263 238 252 270 287 293 300 310 316 310 310 304 301 292 280 265 257 267 277 275 265 251 240 234 237 237 249 249 252
161 226 202 213 270 211 217 229 245 243 281 271 301 290 296 330 258 243 271 284 284 297 310 314 317 317 317 305 294 286 272 260 266 260 275 265 252 245 238 241 239 242 248 254
225 247 226 341 268 148 281 217 247 282 358 296 60 279 228 235 251 302 280 290 298 304 307 311 316 318 317 310 299 287 280 267 264 256 256 267 261 257 251 241 252 247 250 251
247 229 233 265 235 170 234 352 286 279 282 345 289 292 260 143 210 287 295 283 280 299 309 317 323 322 321 316 307 288 280 272 261 264 255 251 258 255 252 250 257 251 249 252
239 256 203 218 180 189 344 4 353 47 73 325 242 199 216 179 123 264 265 286 296 305 313 314 319 322 317 319 315 302 282 270 266 261 265 249 249 250 245 244 252 251 249 249
332 256 311 141 68 23 70 49 338 334 8 233 190 295 249 288 302 250 260 281 303 315 319 320 322 320 316 317 314 305 293 274 266 261 263 258 246 245 244 243 245 245 245 244
197 310 196 6 166 204 232 151 166 255 223 270 304 258 257 241 255 255 249 285 306 311 320 326 326 321 316 314 310 299 293 280 266 260 259 258 246 245 244 243 241 242 244 248
176 258 291 241 201 140 194 166 192 246 202 350 222 289 297 271 257 280 271 285 302 312 320 325 332 324 316 307 304 289 290 276 270 258 256 253 249 238 243 244 242 241 238 241
215 288 242 282 7 232 165 166 197 11 296 264 258 251 244 288 288 248 287 296 310 310 316 327 328 318 309 303 294 288 287 278 272 256 251 254 251 236 241 243 244 233 228 235
158 163 280 337 216 206 143 277 90 148 163 222 295 253 217 241 263 269 269 286 304 299 319 328 330 332 324 310 306 296 289 278 270 259 244 248 249 237 241 242 231 220 226 232
189 156 246 236 248 212 168 201 167 167 236 224 231 270 257 270 279 294 290 299 299 287 312 335 335 325 328 321 316 307 293 280 266 252 240 242 241 235 238 231 214 218 225 226
184 213 303 308 26 8 177 194 191 183 253 237 261 267 13 312 302 304 302 303 306 290 303 322 329 315 318 329 318 318 307 271 255 239 232 237 231 229 228 217 216 218 217 227
187 193 194 236 236 177 271 268 248 223 248 277 245 274 280 286 292 298 301 317 310 302 303 319 325 318 322 330 324 326 316 295 246 225 221 226 222 223 223 213 213 215 222 223
183 241 213 247 254 259 265 270 269 252 255 249 276 272 278 281 287 276 302 315 313 314 312 318 323 317 322 328 328 325 318 299 239 212 214 218 216 218 211 210 210 214 216 215
180 257 193 255 235 257 269 267 258 255 258 254 259 268 270 276 270 268 303 311 311 313 325 331 327 324 329 322 319 313 307 305 235 196 209 207 204 199 204 200 201 205 206 209
182 196 300 274 240 272 273 253 242 214 206 212 246 254 263 254 260 284 306 304 299 309 328 334 331 321 311 307 307 315 309 212 210 181 187 192 200 194 187 191 196 204 203 197
208 199 196 257 254 240 240 285 230 241 253 243 271 278 268 259 282 308 310 301 290 317 326 329 315 322 314 296 275 313 358 26 215 199 186 173 179 183 187 194 197 188 186 181
212 214 236 238 210 298 294 278 187 205 280 258 268 287 279 302 311 297 303 302 297 311 318 322 324 320 322 325 343 349 353 20 148 191 193 184 185 185 190 185 179 179 180 178
176 204 208 215 248 243 244 260 137 169 289 323 205 267 284 325 306 305 307 304 301 305 314 323 325 321 324 330 342 346 347 7 28 164 188 191 198 192 183 179 177 181 170 165
139 169 220 242 257 275 265 177 97 209 259 346 306 264 270 289 283 294 299 305 310 308 315 321 318 318 324 331 343 347 337 320 35 189 190 204 202 193 180 169 170 167 165 162
312 251 209 211 229 268 178 131 188 246 305 310 311 305 291 294 293 288 297 303 301 302 316 315 310 315 322 332 339 343 338 217 172 121 182 189 197 178 172 169 162 165 166 167
300 180 221 199 234 274 278 268 290 302 288 290 303 307 288 296 297 295 296 299 299 305 313 307 308 315 316 329 337 334 345 270 200 256 126 183 179 168 165 161 160 164 168 168
300 229 237 345 251 264 286 295 293 306 294 300 296 293 294 291 291 287 293 293 289 297 295 294 300 308 309 328 334 326 289 209 162 74 127 180 172 163 162 162 165 167 169 171
267 295 257 256 280 307 286 285 284 292 298 295 302 302 293 291 289 288 283 280 284 286 275 283 289 295 297 313 334 331 275 234 226 260 194 162 174 166 162 165 166 171 176 181
216 234 272 276 290 286 282 294 307 305 302 300 291 291 289 285 285 285 279 276 274 265 275 284 288 276 279 302 320 219 220 226 312 141 166 183 168 165 163 167 167 171 175 177
Wind_Speed_850mb
7 8 5 9 10 9 6 7 9 10 10 9 16 32 19 21 29 31 39 39 35 30 28 25 30 34 33 28 25 30 36 42 49 49 56 77 91 90 79 83 70 58 58 56
10 5 10 9 9 8 8 7 9 10 11 14 18 45 36 26 19 33 29 26 32 29 37 41 36 40 43 44 37 30 28 39 50 57 62 61 73 86 83 81 71 65 61 56
9 9 5 6 3 6 7 8 6 11 7 11 13 18 10 10 8 10 19 29 37 44 36 33 38 41 47 48 48 47 34 34 38 55 66 68 65 78 92 91 75 78 71 63
8 5 6 5 4 8 5 8 8 10 8 6 8 11 5 15 18 8 23 43 38 37 39 43 48 54 55 61 58 58 52 42 41 42 62 76 84 79 83 91 82 83 73 66
13 5 9 4 10 10 14 5 6 6 7 4 6 8 9 9 9 16 16 25 24 41 46 47 45 44 49 52 52 58 62 58 50 45 50 68 79 82 86 101 94 89 75 65
14 6 7 10 3 6 6 7 10 8 5 5 11 10 2 4 12 11 15 31 36 34 37 48 56 65 68 62 63 56 59 65 63 56 54 62 76 85 80 88 99 97 72 61
7 4 2 3 4 6 11 12 9 9 3 10 3 7 16 21 35 12 16 30 34 40 53 60 73 83 82 83 75 66 60 66 71 67 63 57 75 78 85 80 88 96 75 58
5 9 6 0 6 8 8 13 9 10 6 12 5 16 14 12 23 30 20 27 42 50 52 66 82 89 87 94 87 69 64 72 73 78 70 59 73 82 87 87 91 100 81 59
5 9 7 6 8 12 3 7 9 4 3 3 10 16 24 31 24 12 22 35 43 48 56 68 86 103 106 109 97 67 67 75 77 81 82 68 65 83 91 89 88 92 77 61
6 8 8 9 3 4 10 10 1 5 5 9 10 12 20 23 30 9 19 35 54 51 55 75 95 92 96 86 72 60 66 76 83 86 89 75 66 79 85 91 86 74 72 64
9 6 7 5 8 12 2 2 5 5 8 8 9 12 11 12 18 17 17 38 54 46 55 69 87 74 72 59 60 70 63 69 85 86 93 82 72 74 79 80 69 74 74 64
7 8 7 18 15 8 10 13 11 7 8 9 5 30 9 27 26 16 32 46 55 44 49 74 83 79 81 71 69 71 65 71 88 85 93 87 72 72 71 68 71 78 68 53
9 4 6 11 5 7 6 9 10 5 2 18 15 24 7 9 14 43 46 53 54 43 50 70 84 78 86 90 75 73 62 67 77 83 86 81 75 70 65 69 75 68 53 53
12 12 15 18 13 6 17 28 19 15 10 17 37 52 45 37 34 26 44 49 44 49 46 55 70 84 92 99 76 84 64 50 57 71 78 73 75 70 67 72 65 50 54 56
11 15 18 27 26 23 29 35 36 32 40 27 53 36 42 38 34 21 34 38 44 49 43 47 57 69 87 100 85 78 71 40 42 62 75 69 70 65 65 66 56 54 55 56
7 8 8 9 14 23 38 44 40 39 38 37 49 48 43 50 21 22 36 40 41 37 42 51 69 86 96 98 83 100 76 26 23 38 65 71 63 65 66 63 61 58 54 56
9 6 6 19 14 13 19 34 26 12 12 12 14 31 10 11 13 15 37 48 40 35 50 62 71 71 75 85 94 84 66 3 13 20 42 60 69 71 67 63 56 54 56 57
14 11 8 9 4 11 12 6 10 17 18 15 17 24 20 17 16 34 45 51 41 46 47 69 67 71 78 86 58 55 49 17 7 21 42 54 64 64 58 53 54 58 58 64
30 16 6 6 8 13 14 7 2 8 13 7 20 21 13 19 31 37 53 38 46 67 60 68 84 77 80 75 76 65 40 28 6 15 30 49 56 55 53 61 63 63 62 65
15 19 6 3 6 9 12 3 7 4 18 4 8 14 11 15 27 28 58 61 69 69 56 77 83 71 67 60 60 58 38 14 4 19 31 41 45 50 65 67 67 62 71 72
8 6 18 14 10 13 11 4 3 4 9 17 16 21 25 23 35 72 72 72 68 62 64 76 72 71 63 54 53 45 35 5 12 20 28 37 49 57 66 73 61 70 69 63
2 3 5 6 10 13 10 4 10 9 47 41 47 59 53 56 65 55 69 70 63 59 63 67 72 73 54 45 46 39 24 12 21 24 29 39 54 73 72 67 71 68 64 62
3 8 5 13 10 14 17 33 57 55 51 42 55 65 62 65 65 64 75 71 64 57 67 62 70 69 51 40 41 37 12 7 18 3 15 45 69 75 69 70 71 68 64 59
7 3 7 8 11 20 45 61 60 56 61 79 63 65 70 68 60 59 68 67 59 59 59 50 61 66 50 31 35 22 17 13 19 14 21 35 62 67 65 66 66 65 61 58
13 7 9 12 20 32 44 49 60 77 70 61 62 66 63 59 58 63 70 72 73 67 54 58 60 68 43 28 29 11 16 24 9 9 34 40 71 68 68 65 61 54 52 46
6 10 5 9 44 50 49 69 71 61 59 67 62 62 76 74 70 70 79 77 64 55 65 69 64 46 30 23 26 8 18 19 20 55 55 77 75 70 64 59 56 48 41 33
Wind_Direction_850mb
23 75 199 225 213 215 232 203 221 257 266 343 293 289 284 273 281 282 282 287 297 313 324 337 329 319 312 299 286 269 261 277 275 278 264 251 243 237 234 234 240 241 249 250
24 225 221 228 228 199 208 245 261 284 297 314 294 290 288 263 238 252 270 287 293 300 310 316 310 310 304 301 292 280 265 257 267 277 275 265 251 240 234 237 237 249 249 252
161 226 202 213 270 211 217 229 245 243 281 271 301 290 296 330 258 243 271 284 284 297 310 314 317 317 317 305 294 286 272 260 266 260 275 265 252 245 238 241 239 242 248 254
225 247 226 341 268 148 281 217 247 282 358 296 60 279 228 235 251 302 280 290 298 304 307 311 316 318 317 310 299 287 280 267 264 256 256 267 261 257 251 241 252 247 250 251
247 229 233 265 235 170 234 352 286 279 282 345 289 292 260 143 210 287 295 283 280 299 309 317 323 322 321 316 307 288 280 272 261 264 255 251 258 255 252 250 257 251 249 252
239 256 203 218 180 189 344 4 353 47 73 325 242 199 216 179 123 264 265 286 296 305 313 314 319 322 317 319 315 302 282 270 266 261 265 249 249 250 245 244 252 251 249 249
332 256 311 141 68 23 70 49 338 334 8 233 190 295 249 288 302 250 260 281 303 315 319 320 322 320 316 317 314 305 293 274 266 261 263 258 246 245 244 243 245 245 245 244
197 310 196 6 166 204 232 151 166 255 223 270 304 258 257 241 255 255 249 285 306 311 320 326 326 321 316 314 310 299 293 280 266 260 259 258 246 245 244 243 241 242 244 248
176 258 291 241 201 140 194 166 192 246 202 350 222 289 297 271 257 280 271 285 302 312 320 325 332 324 316 307 304 289 290 276 270 258 256 253 249 238 243 244 242 241 238 241
215 288 242 282 7 232 165 166 197 11 296 264 258 251 244 288 288 248 287 296 310 310 316 327 328 318 309 303 294 288 287 278 272 256 251 254 251 236 241 243 244 233 228 235
158 163 280 337 216 206 143 277 90 148 163 222 295 253 217 241 263 269 269 286 304 299 319 328 330 332 324 310 306 296 289 278 270 259 244 248 249 237 241 242 231 220 226 232
189 156 246 236 248 212 168 201 167 167 236 224 231 270 257 270 279 294 290 299 299 287 312 335 335 325 328 321 316 307 293 280 266 252 240 242 241 235 238 231 214 218 225 226
184 213 303 308 26 8 177 194 191 183 253 237 261 267 13 312 302 304 302 303 306 290 303 322 329 315 318 329 318 318 307 271 255 239 232 237 231 229 228 217 216 218 217 227
187 193 194 236 236 177 271 268 248 223 248 277 245 274 280 286 292 298 301 317 310 302 303 319 325 318 322 330 324 326 316 295 246 225 221 226 222 223 223 213 213 215 222 223
183 241 213 247 254 259 265 270 269 252 255 249 276 272 278 281 287 276 302 315 313 314 312 318 323 317 322 328 328 325 318 299 239 212 214 218 216 218 211 210 210 214 216 215
180 257 193 255 235 257 269 267 258 255 258 254 259 268 270 276 270 268 303 311 311 313 325 331 327 324 329 322 319 313 307 305 235 196 209 207 204 199 204 200 201 205 206 209
182 196 300 274 240 272 273 253 242 214 206 212 246 254 263 254 260 284 306 304 299 309 328 334 331 321 311 307 307 315 309 212 210 181 187 192 200 194 187 191 196 204 203 197
208 199 196 257 254 240 240 285 230 241 253 243 271 278 268 259 282 308 310 301 290 317 326 329 315 322 314 296 275 313 358 26 215 199 186 173 179 183 187 194 197 188 186 181
212 214 236 238 210 298 294 278 187 205 280 258 268 287 279 302 311 297 303 302 297 311 318 322 324 320 322 325 343 349 353 20 148 191 193 184 185 185 190 185 179 179 180 178
176 204 208 215 248 243 244 260 137 169 289 323 205 267 284 325 306 305 307 304 301 305 314 323 325 321 324 330 342 346 347 7 28 164 188 191 198 192 183 179 177 181 170 165
139 169 220 242 257 275 265 177 97 209 259 346 306 264 270 289 283 294 299 305 310 308 315 321 318 318 324 331 343 347 337 320 35 189 190 204 202 193 180 169 170 167 165 162
312 251 209 211 229 268 178 131 188 246 305 310 311 305 291 294 293 288 297 303 301 302 316 315 310 315 322 332 339 343 338 217 172 121 182 189 197 178 172 169 162 165 166 167
300 180 221 199 234 274 278 268 290 302 288 290 303 307 288 296 297 295 296 299 299 305 313 307 308 315 316 329 337 334 345 270 200 256 126 183 179 168 165 161 160 164 168 168
300 229 237 345 251 264 286 295 293 306 294 300 296 293 294 291 291 287 293 293 289 297 295 294 300 308 309 328 334 326 289 209 162 74 127 180 172 163 162 162 165 167 169 171
267 295 257 256 280 307 286 285 284 292 298 295 302 302 293 291 289 288 283 280 284 286 275 283 289 295 297 313 334 331 275 234 226 260 194 162 174 166 162 165 166 171 176 181
216 234 272 276 290 286 282 294 307 305 302 300 291 291 289 285 285 285 279 276 274 265 275 284 288 276 279 302 320 219 220 226 312 141 166 183 168 165 163 167 167 171 175 177